Showing default

NIMBUS 4, 4362

Orbit data source: Space-Track

NIMBUS 4, 4362 is a payload satellite owned by GSFC (US) in SSO that was launched on Wed, 08 Apr 1970 UTC via a THORAD SLV-2G AGENA D launch vehicle from the Air Force Western Test Range (AFWTR). Payload-class satellites include a variety of spacecraft equipped with specific instruments for various scientific and technological missions. These include communications satellites like Starlink; space stations such as the ISS; scientific satellites like the Hubble; Earth observation satellites from companies like Planet Labs, Umbra, and HawkEye 360; GPS; miniature CubeSats for education and research; and military/defense satellites.

Loading next visibility...
Identifier
4362, 1970-025A
Orbit
SSO
Country
Flag of USUS
Related business
Manufacturer
GE/MSVD
Mission
Non-operational spacecraft
Bus & Motor
NIMBUS, Unknown motor
Mass
619 kg wet, 619 kg dry
Launch date (UTC)
1970-04-08 (56 years ago)
Launch vehicle
THORAD SLV-2G AGENA D
Launch site
Air Force Western Test Range (AFWTR)
Object type
Payload
Rocket body
Debris
Shape & HBR
Unknown
Radar Cross Section
Large (>1 m²)

Expand to show TLE details & history
Last TLE update: 16 hours ago

TLE from 16 hours ago
0 NIMBUS 4
1 04362U 70025A   25310.69703389  .00000000  00000-0  76244-4 0  9992
2 04362  99.9546 228.9602 0007418 174.6172 214.3240 13.44740057726945
Epoch: 2025-11-06T16:43Z
TLE epoch observation values (Epoch: 2025-11-06T16:43:43.728Z)
Latitude
28.46254°
Longitude
-73.55529°
Altitude
1,099.639 km
Speed
7.303 km/s
True Right ascension
14h 54m 06s
True Declination
28° 19' 31"
Sunlit
Object was in daylight at epoch
Visualization orbit readout
Latitude
Unknown
Longitude
Unknown
Altitude
Unknown
Speed
Unknown
Apparent Right ascension
Unknown
Apparent Declination
Unknown
Sunlit
N/A
Visualization observer readout
Local Sidereal Time
05:19:57
Azimuth
Unknown
Elevation
Unknown
Doppler factor
Unknown
Orbital elements
Apogee altitude
1,094.535 km
Perigee altitude
1,083.456 km
Semi-major axis
7,467.133 km
Eccentricity
0.00074
Inclination
99.9546°
RAAN
228.9602°
Arg. of periapsis
174.6172°
True anomaly
214.27611°
Mean anomaly
214.324°
Eccentric anomaly
214.30005°
Mean motion
3.36366 °/min
Orbital period
107.03 mins
BSTAR
0.000076244
Loading maneuver chart data...
Computing Atmospheric mass density...

Documentation

Showing up to 5 results
|